,Coso Junction,Coso Junction
,PM10_1HR,PM10_1HR
,UG/M3,UG/M3
Date,Value,Null Code
01-Apr-2024 00:00,5.1,
01-Apr-2024 01:00,2.8,
01-Apr-2024 02:00,3.6,
01-Apr-2024 03:00,3.9,
01-Apr-2024 04:00,6.5,
01-Apr-2024 05:00,6.8,
01-Apr-2024 06:00,7.3,
01-Apr-2024 07:00,4.4,
01-Apr-2024 08:00,6,
01-Apr-2024 09:00,5.3,
01-Apr-2024 10:00,5,
01-Apr-2024 11:00,4.6,
01-Apr-2024 12:00,5.1,
01-Apr-2024 13:00,4.8,
01-Apr-2024 14:00,3.8,
01-Apr-2024 15:00,5.3,
01-Apr-2024 16:00,6.2,
01-Apr-2024 17:00,10.7,
01-Apr-2024 18:00,13.4,
01-Apr-2024 19:00,15.8,
01-Apr-2024 20:00,10.3,
01-Apr-2024 21:00,8.7,
01-Apr-2024 22:00,4.8,
01-Apr-2024 23:00,6,
02-Apr-2024 00:00,4.9,
02-Apr-2024 01:00,6.6,
02-Apr-2024 02:00,5.5,
02-Apr-2024 03:00,4.4,
02-Apr-2024 04:00,7.4,
02-Apr-2024 05:00,7,
02-Apr-2024 06:00,3.7,
02-Apr-2024 07:00,8.6,
02-Apr-2024 08:00,4.1,
02-Apr-2024 09:00,6.7,
02-Apr-2024 10:00,3.4,
02-Apr-2024 11:00,4.8,
02-Apr-2024 12:00,4.3,
02-Apr-2024 13:00,5.4,
02-Apr-2024 14:00,4.2,
02-Apr-2024 15:00,7.5,
02-Apr-2024 16:00,8.1,
02-Apr-2024 17:00,12.3,
02-Apr-2024 18:00,23,
02-Apr-2024 19:00,13.5,
02-Apr-2024 20:00,12.1,
02-Apr-2024 21:00,13.9,
02-Apr-2024 22:00,8,
02-Apr-2024 23:00,6.4,
03-Apr-2024 00:00,2.7,
03-Apr-2024 01:00,4.1,
03-Apr-2024 02:00,4.4,
03-Apr-2024 03:00,4.3,
03-Apr-2024 04:00,5.9,
03-Apr-2024 05:00,10.2,
03-Apr-2024 06:00,7.6,
03-Apr-2024 07:00,9.6,
03-Apr-2024 08:00,-0.7,
03-Apr-2024 09:00,6.7,
03-Apr-2024 10:00,6.7,
03-Apr-2024 11:00,7.5,
03-Apr-2024 12:00,5.7,
03-Apr-2024 13:00,5.5,
03-Apr-2024 14:00,5.8,
03-Apr-2024 15:00,3.9,
03-Apr-2024 16:00,10.7,
03-Apr-2024 17:00,10.2,
03-Apr-2024 18:00,9.2,
03-Apr-2024 19:00,11.1,
03-Apr-2024 20:00,4.3,
03-Apr-2024 21:00,10.7,
03-Apr-2024 22:00,8.6,
03-Apr-2024 23:00,11.6,
04-Apr-2024 00:00,14.4,
04-Apr-2024 01:00,12.9,
04-Apr-2024 02:00,9.4,
04-Apr-2024 03:00,6.7,
04-Apr-2024 04:00,13.4,
04-Apr-2024 05:00,4.3,
04-Apr-2024 06:00,4.3,
04-Apr-2024 07:00,5.9,
04-Apr-2024 08:00,-0.1,
04-Apr-2024 09:00,11.6,
04-Apr-2024 10:00,8.5,
04-Apr-2024 11:00,6.2,
04-Apr-2024 12:00,7.7,
04-Apr-2024 13:00,45.2,
04-Apr-2024 14:00,37,
04-Apr-2024 15:00,15.1,
04-Apr-2024 16:00,11,
04-Apr-2024 17:00,9.4,
04-Apr-2024 18:00,12.6,
04-Apr-2024 19:00,7.3,
04-Apr-2024 20:00,4.4,
04-Apr-2024 21:00,3.6,
04-Apr-2024 22:00,3.7,
04-Apr-2024 23:00,3.3,
05-Apr-2024 00:00,4.5,
05-Apr-2024 01:00,2.4,
05-Apr-2024 02:00,4.7,
05-Apr-2024 03:00,3.3,
05-Apr-2024 04:00,11.1,
05-Apr-2024 05:00,11.9,
05-Apr-2024 06:00,6.5,
05-Apr-2024 07:00,6.3,
05-Apr-2024 08:00,-5,
05-Apr-2024 09:00,0,
05-Apr-2024 10:00,9.5,
05-Apr-2024 11:00,11.6,
05-Apr-2024 12:00,31.3,
05-Apr-2024 13:00,5.3,
05-Apr-2024 14:00,5.7,
05-Apr-2024 15:00,6.8,
05-Apr-2024 16:00,7.8,
05-Apr-2024 17:00,12.9,
05-Apr-2024 18:00,12.2,
05-Apr-2024 19:00,6.7,
05-Apr-2024 20:00,7,
05-Apr-2024 21:00,10.2,
05-Apr-2024 22:00,7.9,
05-Apr-2024 23:00,6.4,
06-Apr-2024 00:00,9.3,
06-Apr-2024 01:00,9.6,
06-Apr-2024 02:00,6.5,
06-Apr-2024 03:00,5.9,
06-Apr-2024 04:00,7.5,
06-Apr-2024 05:00,5.7,
06-Apr-2024 06:00,3.7,
06-Apr-2024 07:00,0.8,
06-Apr-2024 08:00,-0.3,
06-Apr-2024 09:00,-2.1,
06-Apr-2024 10:00,1.7,
06-Apr-2024 11:00,3.6,
06-Apr-2024 12:00,3.4,
06-Apr-2024 13:00,3.2,
06-Apr-2024 14:00,5.4,
06-Apr-2024 15:00,7.1,
06-Apr-2024 16:00,10.1,
06-Apr-2024 17:00,7.9,
06-Apr-2024 18:00,16.8,
06-Apr-2024 19:00,16.4,
06-Apr-2024 20:00,3.3,
06-Apr-2024 21:00,6.2,
06-Apr-2024 22:00,7.8,
06-Apr-2024 23:00,7.3,
07-Apr-2024 00:00,5,
07-Apr-2024 01:00,5.2,
07-Apr-2024 02:00,4.3,
07-Apr-2024 03:00,4.5,
07-Apr-2024 04:00,10.1,
07-Apr-2024 05:00,5.8,
07-Apr-2024 06:00,6.7,
07-Apr-2024 07:00,-1.8,
07-Apr-2024 08:00,0,
07-Apr-2024 09:00,-2.5,
07-Apr-2024 10:00,1.9,
07-Apr-2024 11:00,3.9,
07-Apr-2024 12:00,2.9,
07-Apr-2024 13:00,6.2,
07-Apr-2024 14:00,6,
07-Apr-2024 15:00,5,
07-Apr-2024 16:00,12.3,
07-Apr-2024 17:00,10.2,
07-Apr-2024 18:00,22.1,
07-Apr-2024 19:00,16.2,
07-Apr-2024 20:00,18.6,
07-Apr-2024 21:00,63.8,
07-Apr-2024 22:00,28.8,
07-Apr-2024 23:00,21.7,
08-Apr-2024 00:00,9.3,
08-Apr-2024 01:00,11.8,
08-Apr-2024 02:00,5.7,
08-Apr-2024 03:00,16.6,
08-Apr-2024 04:00,31.1,
08-Apr-2024 05:00,20.9,
08-Apr-2024 06:00,14.6,
08-Apr-2024 07:00,19.4,
08-Apr-2024 08:00,41.3,
08-Apr-2024 09:00,6.4,
08-Apr-2024 10:00,6.4,
08-Apr-2024 11:00,8.1,
08-Apr-2024 12:00,8.9,
08-Apr-2024 13:00,7.2,
08-Apr-2024 14:00,7.2,
08-Apr-2024 15:00,6.5,
08-Apr-2024 16:00,8.4,
08-Apr-2024 17:00,8.8,
08-Apr-2024 18:00,17.4,
08-Apr-2024 19:00,24.7,
08-Apr-2024 20:00,14.7,
08-Apr-2024 21:00,9,
08-Apr-2024 22:00,15.1,
08-Apr-2024 23:00,8.2,
09-Apr-2024 00:00,7.1,
09-Apr-2024 01:00,8.5,
09-Apr-2024 02:00,6.5,
09-Apr-2024 03:00,5.5,
09-Apr-2024 04:00,8.5,
09-Apr-2024 05:00,9.1,
09-Apr-2024 06:00,6.6,
09-Apr-2024 07:00,5.7,
09-Apr-2024 08:00,5.5,
09-Apr-2024 09:00,1.2,
09-Apr-2024 10:00,4.8,
09-Apr-2024 11:00,3,
09-Apr-2024 12:00,4,
09-Apr-2024 13:00,5.1,
09-Apr-2024 14:00,6.9,
09-Apr-2024 15:00,10.8,
09-Apr-2024 16:00,15.6,
09-Apr-2024 17:00,16.2,
09-Apr-2024 18:00,25.4,
09-Apr-2024 19:00,23.6,
09-Apr-2024 20:00,21.9,
09-Apr-2024 21:00,14.5,
09-Apr-2024 22:00,9.4,
09-Apr-2024 23:00,9.5,
10-Apr-2024 00:00,11.2,
10-Apr-2024 01:00,15.8,
10-Apr-2024 02:00,9.5,
10-Apr-2024 03:00,9.1,
10-Apr-2024 04:00,7.4,
10-Apr-2024 05:00,11.4,
10-Apr-2024 06:00,5.9,
10-Apr-2024 07:00,4.7,
10-Apr-2024 08:00,21.2,
10-Apr-2024 09:00,7.1,
10-Apr-2024 10:00,6.4,
10-Apr-2024 11:00,5.3,
10-Apr-2024 12:00,11.2,
10-Apr-2024 13:00,8.9,
10-Apr-2024 14:00,8.9,
10-Apr-2024 15:00,8.3,
10-Apr-2024 16:00,12.1,
10-Apr-2024 17:00,18,
10-Apr-2024 18:00,40.3,
10-Apr-2024 19:00,20.5,
10-Apr-2024 20:00,21,
10-Apr-2024 21:00,14.4,
10-Apr-2024 22:00,12.4,
10-Apr-2024 23:00,31.6,
11-Apr-2024 00:00,11.8,
11-Apr-2024 01:00,11.5,
11-Apr-2024 02:00,12.5,
11-Apr-2024 03:00,8.5,
11-Apr-2024 04:00,10,
11-Apr-2024 05:00,10,
11-Apr-2024 06:00,7.2,
11-Apr-2024 07:00,3.9,
11-Apr-2024 08:00,,BL
11-Apr-2024 09:00,,BL
11-Apr-2024 10:00,,BL
11-Apr-2024 11:00,,BL
11-Apr-2024 12:00,21.6,
11-Apr-2024 13:00,6.7,
11-Apr-2024 14:00,9,
11-Apr-2024 15:00,9,
11-Apr-2024 16:00,15.7,
11-Apr-2024 17:00,19.4,
11-Apr-2024 18:00,18.7,
11-Apr-2024 19:00,21.2,
11-Apr-2024 20:00,19.1,
11-Apr-2024 21:00,14.7,
11-Apr-2024 22:00,16.3,
11-Apr-2024 23:00,12.8,
12-Apr-2024 00:00,13.5,
12-Apr-2024 01:00,13.3,
12-Apr-2024 02:00,9.2,
12-Apr-2024 03:00,11.6,
12-Apr-2024 04:00,15,
12-Apr-2024 05:00,14.2,
12-Apr-2024 06:00,10,
12-Apr-2024 07:00,9.3,
12-Apr-2024 08:00,0,
12-Apr-2024 09:00,0,
12-Apr-2024 10:00,0,
12-Apr-2024 11:00,10.4,
12-Apr-2024 12:00,10.6,
12-Apr-2024 13:00,12.7,
12-Apr-2024 14:00,14,
12-Apr-2024 15:00,17.4,
12-Apr-2024 16:00,20.5,
12-Apr-2024 17:00,14.2,
12-Apr-2024 18:00,12.7,
12-Apr-2024 19:00,16.8,
12-Apr-2024 20:00,14.7,
12-Apr-2024 21:00,17.7,
12-Apr-2024 22:00,15.4,
12-Apr-2024 23:00,16.6,
13-Apr-2024 00:00,14.6,
13-Apr-2024 01:00,13,
13-Apr-2024 02:00,9,
13-Apr-2024 03:00,11.5,
13-Apr-2024 04:00,13.6,
13-Apr-2024 05:00,12.5,
13-Apr-2024 06:00,10.2,
13-Apr-2024 07:00,8.1,
13-Apr-2024 08:00,9.4,
13-Apr-2024 09:00,12.6,
13-Apr-2024 10:00,12.3,
13-Apr-2024 11:00,12.5,
13-Apr-2024 12:00,13,
13-Apr-2024 13:00,16.3,
13-Apr-2024 14:00,14.1,
13-Apr-2024 15:00,17.8,
13-Apr-2024 16:00,18.1,
13-Apr-2024 17:00,13.3,
13-Apr-2024 18:00,17.5,
13-Apr-2024 19:00,16,
13-Apr-2024 20:00,10.5,
13-Apr-2024 21:00,5.3,
13-Apr-2024 22:00,8,
13-Apr-2024 23:00,4.1,
14-Apr-2024 00:00,3,
14-Apr-2024 01:00,3.6,
14-Apr-2024 02:00,4.8,
14-Apr-2024 03:00,4.3,
14-Apr-2024 04:00,4.6,
14-Apr-2024 05:00,6.7,
14-Apr-2024 06:00,3.4,
14-Apr-2024 07:00,-0.2,
14-Apr-2024 08:00,-0.8,
14-Apr-2024 09:00,1.5,
14-Apr-2024 10:00,4.3,
14-Apr-2024 11:00,4.6,
14-Apr-2024 12:00,0.9,
14-Apr-2024 13:00,-0.4,
14-Apr-2024 14:00,1.7,
14-Apr-2024 15:00,2,
14-Apr-2024 16:00,5.7,
14-Apr-2024 17:00,9.5,
14-Apr-2024 18:00,9.5,
14-Apr-2024 19:00,7.2,
14-Apr-2024 20:00,5.2,
14-Apr-2024 21:00,4.1,
14-Apr-2024 22:00,3.5,
14-Apr-2024 23:00,3.4,
15-Apr-2024 00:00,3.7,
15-Apr-2024 01:00,4,
15-Apr-2024 02:00,4.1,
15-Apr-2024 03:00,4.3,
15-Apr-2024 04:00,6.7,
15-Apr-2024 05:00,7.7,
15-Apr-2024 06:00,5,
15-Apr-2024 07:00,0.8,
15-Apr-2024 08:00,0,
15-Apr-2024 09:00,1.6,
15-Apr-2024 10:00,3.4,
15-Apr-2024 11:00,3.9,
15-Apr-2024 12:00,2.6,
15-Apr-2024 13:00,4.1,
15-Apr-2024 14:00,5.2,
15-Apr-2024 15:00,6.2,
15-Apr-2024 16:00,8.6,
15-Apr-2024 17:00,6.8,
15-Apr-2024 18:00,28.2,
15-Apr-2024 19:00,12.6,
15-Apr-2024 20:00,15.1,
15-Apr-2024 21:00,12.3,
15-Apr-2024 22:00,9.4,
15-Apr-2024 23:00,5,
16-Apr-2024 00:00,5.8,
16-Apr-2024 01:00,8.1,
16-Apr-2024 02:00,7.8,
16-Apr-2024 03:00,3.8,
16-Apr-2024 04:00,7.1,
16-Apr-2024 05:00,8.9,
16-Apr-2024 06:00,3.4,
16-Apr-2024 07:00,0.8,
16-Apr-2024 08:00,7.2,
16-Apr-2024 09:00,7.6,
16-Apr-2024 10:00,6.2,
16-Apr-2024 11:00,5.8,
16-Apr-2024 12:00,14.4,
16-Apr-2024 13:00,7.7,
16-Apr-2024 14:00,8.6,
16-Apr-2024 15:00,10.2,
16-Apr-2024 16:00,15,
16-Apr-2024 17:00,10.3,
16-Apr-2024 18:00,9.5,
16-Apr-2024 19:00,16.4,
16-Apr-2024 20:00,13.6,
16-Apr-2024 21:00,15,
16-Apr-2024 22:00,15.1,
16-Apr-2024 23:00,11.9,
17-Apr-2024 00:00,14.6,
17-Apr-2024 01:00,9.2,
17-Apr-2024 02:00,11.8,
17-Apr-2024 03:00,8.4,
17-Apr-2024 04:00,8.1,
17-Apr-2024 05:00,6.5,
17-Apr-2024 06:00,4.6,
17-Apr-2024 07:00,4.6,
17-Apr-2024 08:00,9.2,
17-Apr-2024 09:00,19.8,
17-Apr-2024 10:00,6.6,
17-Apr-2024 11:00,9.2,
17-Apr-2024 12:00,9.4,
17-Apr-2024 13:00,8.6,
17-Apr-2024 14:00,10.6,
17-Apr-2024 15:00,15.4,
17-Apr-2024 16:00,47.8,
17-Apr-2024 17:00,9.6,
17-Apr-2024 18:00,22.5,
17-Apr-2024 19:00,21.3,
17-Apr-2024 20:00,13.7,
17-Apr-2024 21:00,11,
17-Apr-2024 22:00,12,
17-Apr-2024 23:00,37.3,
18-Apr-2024 00:00,6.6,
18-Apr-2024 01:00,9.1,
18-Apr-2024 02:00,14,
18-Apr-2024 03:00,10.9,
18-Apr-2024 04:00,8,
18-Apr-2024 05:00,7.7,
18-Apr-2024 06:00,4.1,
18-Apr-2024 07:00,8.3,
18-Apr-2024 08:00,9.5,
18-Apr-2024 09:00,9.1,
18-Apr-2024 10:00,7.3,
18-Apr-2024 11:00,10.7,
18-Apr-2024 12:00,10.2,
18-Apr-2024 13:00,8.9,
18-Apr-2024 14:00,10.3,
18-Apr-2024 15:00,13.1,
18-Apr-2024 16:00,6.9,
18-Apr-2024 17:00,12,
18-Apr-2024 18:00,18.2,
18-Apr-2024 19:00,15,
18-Apr-2024 20:00,17.2,
18-Apr-2024 21:00,17.2,
18-Apr-2024 22:00,21.4,
18-Apr-2024 23:00,20.5,
19-Apr-2024 00:00,17.3,
19-Apr-2024 01:00,8.7,
19-Apr-2024 02:00,8.5,
19-Apr-2024 03:00,11.5,
19-Apr-2024 04:00,13.3,
19-Apr-2024 05:00,11.3,
19-Apr-2024 06:00,5.7,
19-Apr-2024 07:00,12.9,
19-Apr-2024 08:00,13.1,
19-Apr-2024 09:00,10.6,
19-Apr-2024 10:00,10.6,
19-Apr-2024 11:00,9,
19-Apr-2024 12:00,12,
19-Apr-2024 13:00,11.3,
19-Apr-2024 14:00,12.9,
19-Apr-2024 15:00,12.5,
19-Apr-2024 16:00,9.9,
19-Apr-2024 17:00,11.7,
19-Apr-2024 18:00,9.5,
19-Apr-2024 19:00,13.9,
19-Apr-2024 20:00,18.1,
19-Apr-2024 21:00,25.9,
19-Apr-2024 22:00,16.4,
19-Apr-2024 23:00,12.9,
20-Apr-2024 00:00,11.6,
20-Apr-2024 01:00,9.6,
20-Apr-2024 02:00,7.4,
20-Apr-2024 03:00,11.4,
20-Apr-2024 04:00,11.1,
20-Apr-2024 05:00,10.4,
20-Apr-2024 06:00,21.2,
20-Apr-2024 07:00,11,
20-Apr-2024 08:00,11.7,
20-Apr-2024 09:00,10.5,
20-Apr-2024 10:00,11.5,
20-Apr-2024 11:00,12.2,
20-Apr-2024 12:00,12.6,
20-Apr-2024 13:00,11.9,
20-Apr-2024 14:00,15.6,
20-Apr-2024 15:00,9.6,
20-Apr-2024 16:00,22.2,
20-Apr-2024 17:00,18.8,
20-Apr-2024 18:00,16,
20-Apr-2024 19:00,21.8,
20-Apr-2024 20:00,21.8,
20-Apr-2024 21:00,19.9,
20-Apr-2024 22:00,18.9,
20-Apr-2024 23:00,19.1,
21-Apr-2024 00:00,15.9,
21-Apr-2024 01:00,14.8,
21-Apr-2024 02:00,14.3,
21-Apr-2024 03:00,9.2,
21-Apr-2024 04:00,13.1,
21-Apr-2024 05:00,12.5,
21-Apr-2024 06:00,8.4,
21-Apr-2024 07:00,10.1,
21-Apr-2024 08:00,8.9,
21-Apr-2024 09:00,8.5,
21-Apr-2024 10:00,8,
21-Apr-2024 11:00,8.9,
21-Apr-2024 12:00,7.9,
21-Apr-2024 13:00,7.4,
21-Apr-2024 14:00,8.4,
21-Apr-2024 15:00,11.8,
21-Apr-2024 16:00,15.4,
21-Apr-2024 17:00,15.8,
21-Apr-2024 18:00,15.9,
21-Apr-2024 19:00,18.7,
21-Apr-2024 20:00,18.5,
21-Apr-2024 21:00,18.2,
21-Apr-2024 22:00,17.3,
21-Apr-2024 23:00,17.1,
22-Apr-2024 00:00,18.4,
22-Apr-2024 01:00,17.6,
22-Apr-2024 02:00,16.6,
22-Apr-2024 03:00,15.7,
22-Apr-2024 04:00,12.6,
22-Apr-2024 05:00,19.9,
22-Apr-2024 06:00,8.5,
22-Apr-2024 07:00,10.7,
22-Apr-2024 08:00,11.7,
22-Apr-2024 09:00,13.2,
22-Apr-2024 10:00,14.7,
22-Apr-2024 11:00,16.2,
22-Apr-2024 12:00,11.1,
22-Apr-2024 13:00,12.3,
22-Apr-2024 14:00,8.7,
22-Apr-2024 15:00,13.4,
22-Apr-2024 16:00,18.2,
22-Apr-2024 17:00,21.6,
22-Apr-2024 18:00,18.1,
22-Apr-2024 19:00,18.6,
22-Apr-2024 20:00,20.2,
22-Apr-2024 21:00,16.9,
22-Apr-2024 22:00,32.9,
22-Apr-2024 23:00,19.1,
23-Apr-2024 00:00,20.9,
23-Apr-2024 01:00,28.2,
23-Apr-2024 02:00,23,
23-Apr-2024 03:00,23.4,
23-Apr-2024 04:00,26.9,
23-Apr-2024 05:00,33.9,
23-Apr-2024 06:00,18.8,
23-Apr-2024 07:00,24.6,
23-Apr-2024 08:00,22.8,
23-Apr-2024 09:00,23.3,
23-Apr-2024 10:00,23,
23-Apr-2024 11:00,22,
23-Apr-2024 12:00,18.9,
23-Apr-2024 13:00,13.9,
23-Apr-2024 14:00,8,
23-Apr-2024 15:00,11.3,
23-Apr-2024 16:00,15.3,
23-Apr-2024 17:00,12.4,
23-Apr-2024 18:00,22,
23-Apr-2024 19:00,19.9,
23-Apr-2024 20:00,15.6,
23-Apr-2024 21:00,19.9,
23-Apr-2024 22:00,17.8,
23-Apr-2024 23:00,19.2,
24-Apr-2024 00:00,21,
24-Apr-2024 01:00,18.5,
24-Apr-2024 02:00,45.3,
24-Apr-2024 03:00,15.4,
24-Apr-2024 04:00,16.9,
24-Apr-2024 05:00,20.8,
24-Apr-2024 06:00,11.3,
24-Apr-2024 07:00,6.2,
24-Apr-2024 08:00,,AX
24-Apr-2024 09:00,,AX
24-Apr-2024 10:00,,AX
24-Apr-2024 11:00,16.1,
24-Apr-2024 12:00,19.4,
24-Apr-2024 13:00,12,
24-Apr-2024 14:00,16.7,
24-Apr-2024 15:00,12.5,
24-Apr-2024 16:00,15.3,
24-Apr-2024 17:00,37.6,
24-Apr-2024 18:00,27.2,
24-Apr-2024 19:00,16.3,
24-Apr-2024 20:00,14.9,
24-Apr-2024 21:00,16.8,
24-Apr-2024 22:00,18.7,
24-Apr-2024 23:00,15.7,
25-Apr-2024 00:00,15.7,
25-Apr-2024 01:00,14.5,
25-Apr-2024 02:00,16.1,
25-Apr-2024 03:00,13.3,
25-Apr-2024 04:00,9.7,
25-Apr-2024 05:00,14.4,
25-Apr-2024 06:00,21.4,
25-Apr-2024 07:00,3.7,
25-Apr-2024 08:00,7.4,
25-Apr-2024 09:00,7.1,
25-Apr-2024 10:00,12.8,
25-Apr-2024 11:00,13.4,
25-Apr-2024 12:00,10,
25-Apr-2024 13:00,8.2,
25-Apr-2024 14:00,14,
25-Apr-2024 15:00,14.7,
25-Apr-2024 16:00,14.1,
25-Apr-2024 17:00,28.5,
25-Apr-2024 18:00,16.1,
25-Apr-2024 19:00,14.1,
25-Apr-2024 20:00,14.1,
25-Apr-2024 21:00,12.1,
25-Apr-2024 22:00,18.7,
25-Apr-2024 23:00,13.4,
26-Apr-2024 00:00,9.7,
26-Apr-2024 01:00,8.1,
26-Apr-2024 02:00,9.2,
26-Apr-2024 03:00,18.8,
26-Apr-2024 04:00,25,
26-Apr-2024 05:00,33.1,
26-Apr-2024 06:00,77.6,
26-Apr-2024 07:00,25.9,
26-Apr-2024 08:00,8.9,
26-Apr-2024 09:00,6.2,
26-Apr-2024 10:00,6.6,
26-Apr-2024 11:00,8.2,
26-Apr-2024 12:00,15.7,
26-Apr-2024 13:00,11.3,
26-Apr-2024 14:00,13.6,
26-Apr-2024 15:00,42.6,
26-Apr-2024 16:00,48.8,
26-Apr-2024 17:00,16.6,
26-Apr-2024 18:00,10.7,
26-Apr-2024 19:00,11.2,
26-Apr-2024 20:00,7.7,
26-Apr-2024 21:00,14,
26-Apr-2024 22:00,17.6,
26-Apr-2024 23:00,13.3,
27-Apr-2024 00:00,11,
27-Apr-2024 01:00,12,
27-Apr-2024 02:00,14.7,
27-Apr-2024 03:00,13.3,
27-Apr-2024 04:00,9.3,
27-Apr-2024 05:00,4.7,
27-Apr-2024 06:00,1.9,
27-Apr-2024 07:00,1.3,
27-Apr-2024 08:00,4.3,
27-Apr-2024 09:00,3.7,
27-Apr-2024 10:00,1.8,
27-Apr-2024 11:00,4.6,
27-Apr-2024 12:00,2.2,
27-Apr-2024 13:00,3.3,
27-Apr-2024 14:00,3.3,
27-Apr-2024 15:00,5.8,
27-Apr-2024 16:00,5.8,
27-Apr-2024 17:00,13.1,
27-Apr-2024 18:00,12.6,
27-Apr-2024 19:00,17,
27-Apr-2024 20:00,20.9,
27-Apr-2024 21:00,22,
27-Apr-2024 22:00,21,
27-Apr-2024 23:00,19.8,
28-Apr-2024 00:00,15.9,
28-Apr-2024 01:00,13,
28-Apr-2024 02:00,10,
28-Apr-2024 03:00,12.2,
28-Apr-2024 04:00,8.4,
28-Apr-2024 05:00,9.1,
28-Apr-2024 06:00,5.2,
28-Apr-2024 07:00,0.1,
28-Apr-2024 08:00,5.9,
28-Apr-2024 09:00,7,
28-Apr-2024 10:00,2.8,
28-Apr-2024 11:00,7.5,
28-Apr-2024 12:00,6.4,
28-Apr-2024 13:00,6.1,
28-Apr-2024 14:00,8.4,
28-Apr-2024 15:00,10.5,
28-Apr-2024 16:00,11.7,
28-Apr-2024 17:00,15.7,
28-Apr-2024 18:00,17.6,
28-Apr-2024 19:00,23.8,
28-Apr-2024 20:00,18.8,
28-Apr-2024 21:00,20.7,
28-Apr-2024 22:00,23.7,
28-Apr-2024 23:00,22.4,
29-Apr-2024 00:00,19.5,
29-Apr-2024 01:00,18.5,
29-Apr-2024 02:00,17.5,
29-Apr-2024 03:00,12.5,
29-Apr-2024 04:00,12.5,
29-Apr-2024 05:00,14.3,
29-Apr-2024 06:00,10.6,
29-Apr-2024 07:00,7.5,
29-Apr-2024 08:00,11.8,
29-Apr-2024 09:00,11.6,
29-Apr-2024 10:00,5.5,
29-Apr-2024 11:00,12.9,
29-Apr-2024 12:00,12.9,
29-Apr-2024 13:00,14.2,
29-Apr-2024 14:00,12.9,
29-Apr-2024 15:00,16.4,
29-Apr-2024 16:00,19.6,
29-Apr-2024 17:00,16.3,
29-Apr-2024 18:00,27.3,
29-Apr-2024 19:00,23.7,
29-Apr-2024 20:00,25.3,
29-Apr-2024 21:00,25.5,
29-Apr-2024 22:00,26.6,
29-Apr-2024 23:00,20.3,
30-Apr-2024 00:00,21.7,
30-Apr-2024 01:00,22.7,
30-Apr-2024 02:00,21,
30-Apr-2024 03:00,13.7,
30-Apr-2024 04:00,14.5,
30-Apr-2024 05:00,20,
30-Apr-2024 06:00,5.6,
30-Apr-2024 07:00,10.6,
30-Apr-2024 08:00,22.3,
30-Apr-2024 09:00,21.6,
30-Apr-2024 10:00,30.4,
30-Apr-2024 11:00,20.2,
30-Apr-2024 12:00,20.1,
30-Apr-2024 13:00,15,
30-Apr-2024 14:00,9.7,
30-Apr-2024 15:00,12.6,
30-Apr-2024 16:00,18.5,
30-Apr-2024 17:00,14,
30-Apr-2024 18:00,24.4,
30-Apr-2024 19:00,20.2,
30-Apr-2024 20:00,24,
30-Apr-2024 21:00,27.7,
30-Apr-2024 22:00,29.1,
30-Apr-2024 23:00,27.3,
